Location: ???????
(55.4362°N, 38.1183°E)
Time: 18:23:27
(UTC+00:00)

Cosmos 1328 - Pass Details

Date: 17 June 2021
Orbit: 527 x 555 km, 82.5° (Epoch: 29 July)

Event Time Altitude Azimuth Distance (km) Brightness Sun altitude
Exits shadow 21:16:50 17° 176° (S) 1,396 5.2 -11.1°
Maximum altitude 21:19:44 63° 98° (E) 595 3.9 -11.1°
Drops below altitude 10° 21:23:37 10° 17° (NNE) 1,790 7.7 -11.2°
Sets 21:25:48 0° 14° (NNE) 2,688 9.1 -11.2°
